Погода в Крапивне

Россия / Смоленская область     54°22′52″N   31°51′46″E
темп.,
°C
ветер,
м/с
пор.,
м/с
влажн.,
%
обл.,
%
осадки,
мм/ч
давл.,
гПа
погр.,
м
8 марта, пн
пн800:00−6з5128386 0.1 1002459
03:00−7з5138746 0.1 1002502
06:00−7з5119367 0.0 1002400
09:00−6зсз599481 0.3 1004645
12:00−5сз568067 0.1 1007863
15:00−5сз578170 0.2 1008938
18:00−6сз4885100 0.1 1010488
21:00−10ссз4109279 0.1 1012258
9 марта, вт
вт900:00−12ссз379426 0.0 1014180
03:00−13ссз359642 0.0 1016103
06:00−14ссз359612 0.0 101891
09:00−13ссз37936 0.0 1019252
12:00−9ссз468453 0.0 1020744
15:00−7сз467976 0.1 10211019
18:00−9сз358497 0.1 1021176
21:00−13сз128755 0.1 102420
10 марта, ср
ср1000:00−14юз118831 0.0 102421
03:00−11ю239664 0.3 102490
06:00−10ююв2496100 1.5 1024170
09:00−10в4695100 2.8 1025237
12:00−11в5891100 0.8 1026416
15:00−10в4787100 0.9 1027495
18:00−12в378558 0.0 1028237
21:00−17в368729 0.0 1030107
11 марта, чт
чт1100:00−19вюв33940 0.0 103265
03:00−21юв338810 0.0 103365
06:00−21юв358981 0.0 103389
09:00−19ююв488353 0.0 1033206
12:00−13ююв47790 0.0 1032302
15:00−9ююв47760 0.0 1030433
18:00−10ююв49820 0.0 1028349
21:00−13ююв5138614 0.0 1027309
12 марта, пт
пт1200:00−13ююв61391100 0.0 1025332
03:00−12ююв71592100 0.0 1022392
06:00−10ююв81787100 0.0 1018551
09:00−7ю91892100 0.3 1014820
12:00−4ю101794100 2.4 10111063
15:00−2ю91694100 5.2 1009934
18:000ююз81496100 1.4 1007767
21:00+1зюз51299100 4.2 1007502